Вернуться в каталог

LUCH

OLYMP

АктивенВоенныеGEO
NORAD 40258·PAYLOAD·🇷🇺 Russia

Запущен Sep 27, 2014 с Baikonur Cosmodrome

Loading…

TLE

СвежийSource: Space-Track

Эпоха: Sep 14, 2026, 00:39 UTC

1 40258U 14058A   26257.02712321 -.00000181  00000-0  00000+0 0  9997
2 40258   2.1215  81.5098 0002816 140.5763 252.8136  0.99112632 41854

Отслеживайте LUCH в реальном времени с AllMySat

Download on the App Store